Time,TemperatureF,DewpointF,PressureIn,WindDirection,WindDirectionDegrees,WindSpeedMPH,WindSpeedGustMPH,Humidity,HourlyPrecipIn,Conditions,Clouds,dailyrainin,SoftwareType,DateUTC
2013-01-30 00:01:00,34.0,34.0,-100.00,SE,141,2.0,5.0,100,-99.99,,,-99.99,,2013-01-30 08:01:00,
2013-01-30 00:11:00,34.0,34.0,-100.00,East,90,2.0,3.0,100,-99.99,,,-99.99,,2013-01-30 08:11:00,
2013-01-30 00:21:00,34.0,34.0,-100.00,SSW,206,2.0,4.0,100,-99.99,,,-99.99,,2013-01-30 08:21:00,
2013-01-30 00:32:00,35.0,35.0,-100.00,SSE,155,3.0,7.0,100,-99.99,,,-99.99,,2013-01-30 08:32:00,
2013-01-30 00:41:00,37.0,36.0,-100.00,East,99,3.0,7.0,96,-99.99,,,-99.99,,2013-01-30 08:41:00,
2013-01-30 00:52:00,36.0,35.0,-100.00,SSW,206,3.0,8.0,95,-99.99,,,-99.99,,2013-01-30 08:52:00,
2013-01-30 01:01:00,38.0,36.0,-100.00,SW,216,2.0,4.0,94,-99.99,,,-99.99,,2013-01-30 09:01:00,
2013-01-30 01:11:00,42.0,35.0,-100.00,South,191,1.0,4.0,75,-99.99,,,-99.99,,2013-01-30 09:11:00,
2013-01-30 01:21:00,44.0,34.0,-100.00,SSE,160,2.0,9.0,67,-99.99,,,-99.99,,2013-01-30 09:21:00,
2013-01-30 01:31:00,47.0,32.0,-100.00,East,99,5.0,12.0,55,-99.99,,,-99.99,,2013-01-30 09:31:00,
2013-01-30 01:41:00,49.0,30.0,-100.00,East,82,6.0,11.0,48,-99.99,,,-99.99,,2013-01-30 09:41:00,
2013-01-30 01:51:00,50.0,29.0,-100.00,ENE,73,6.0,14.0,44,-99.99,,,-99.99,,2013-01-30 09:51:00,
2013-01-30 02:01:00,51.0,27.0,-100.00,ENE,62,11.0,19.0,39,-99.99,,,-99.99,,2013-01-30 10:01:00,
2013-01-30 02:11:00,51.0,27.0,-100.00,ENE,62,11.0,19.0,39,-99.99,,,-99.99,,2013-01-30 10:11:00,
2013-01-30 02:21:00,51.0,26.0,-100.00,ENE,59,11.0,21.0,38,-99.99,,,-99.99,,2013-01-30 10:21:00,
2013-01-30 02:31:00,51.0,26.0,-100.00,ENE,59,11.0,21.0,38,-99.99,,,-99.99,,2013-01-30 10:31:00,
2013-01-30 02:41:00,51.0,26.0,-100.00,ENE,59,11.0,21.0,38,-99.99,,,-99.99,,2013-01-30 10:41:00,
2013-01-30 02:52:00,52.0,27.0,-100.00,NE,55,10.0,19.0,37,-99.99,,,-99.99,,2013-01-30 10:52:00,
2013-01-30 03:02:00,52.0,25.0,-100.00,ENE,59,11.0,21.0,35,-99.99,,,-99.99,,2013-01-30 11:02:00,
2013-01-30 03:11:00,52.0,25.0,-100.00,ENE,61,10.0,20.0,35,-99.99,,,-99.99,,2013-01-30 11:11:00,
2013-01-30 03:21:00,52.0,25.0,-100.00,ENE,57,8.0,16.0,34,-99.99,,,-99.99,,2013-01-30 11:21:00,
2013-01-30 03:32:00,52.0,24.0,-100.00,NE,54,10.0,25.0,33,-99.99,,,-99.99,,2013-01-30 11:32:00,
2013-01-30 03:41:00,53.0,23.0,-100.00,NE,52,12.0,25.0,31,-99.99,,,-99.99,,2013-01-30 11:41:00,
2013-01-30 03:52:00,52.0,23.0,-100.00,NE,42,11.0,24.0,32,-99.99,,,-99.99,,2013-01-30 11:52:00,
2013-01-30 04:01:00,52.0,23.0,-100.00,NE,36,10.0,26.0,32,-99.99,,,-99.99,,2013-01-30 12:01:00,
2013-01-30 04:12:00,52.0,23.0,-100.00,NE,41,12.0,23.0,32,-99.99,,,-99.99,,2013-01-30 12:12:00,
2013-01-30 04:21:00,52.0,23.0,-100.00,NE,43,12.0,31.0,32,-99.99,,,-99.99,,2013-01-30 12:21:00,
2013-01-30 04:32:00,52.0,24.0,-100.00,NE,43,11.0,26.0,33,-99.99,,,-99.99,,2013-01-30 12:32:00,
2013-01-30 04:42:00,52.0,24.0,-100.00,NE,41,11.0,26.0,33,-99.99,,,-99.99,,2013-01-30 12:42:00,
2013-01-30 05:02:00,51.0,24.0,-100.00,NE,41,11.0,28.0,34,-99.99,,,-99.99,,2013-01-30 13:02:00,
2013-01-30 05:12:00,51.0,24.0,-100.00,NE,48,13.0,27.0,34,-99.99,,,-99.99,,2013-01-30 13:12:00,
2013-01-30 05:22:00,51.0,24.0,-100.00,NE,50,11.0,23.0,35,-99.99,,,-99.99,,2013-01-30 13:22:00,
2013-01-30 05:32:00,51.0,24.0,-100.00,NE,49,15.0,28.0,35,-99.99,,,-99.99,,2013-01-30 13:32:00,
2013-01-30 05:42:00,51.0,25.0,-100.00,NE,52,12.0,27.0,36,-99.99,,,-99.99,,2013-01-30 13:42:00,
2013-01-30 05:52:00,50.0,24.0,-100.00,NE,51,13.0,32.0,36,-99.99,,,-99.99,,2013-01-30 13:52:00,
2013-01-30 06:01:00,50.0,24.0,-100.00,NE,53,14.0,31.0,36,-99.99,,,-99.99,,2013-01-30 14:01:00,
2013-01-30 06:11:00,50.0,25.0,-100.00,NE,54,15.0,30.0,37,-99.99,,,-99.99,,2013-01-30 14:11:00,
2013-01-30 06:22:00,50.0,25.0,-100.00,NE,56,15.0,25.0,38,-99.99,,,-99.99,,2013-01-30 14:22:00,
2013-01-30 06:32:00,50.0,25.0,-100.00,ENE,61,14.0,26.0,38,-99.99,,,-99.99,,2013-01-30 14:32:00,
2013-01-30 06:42:00,49.0,25.0,-100.00,ENE,62,13.0,26.0,39,-99.99,,,-99.99,,2013-01-30 14:42:00,
2013-01-30 06:52:00,49.0,25.0,-100.00,ENE,61,14.0,27.0,39,-99.99,,,-99.99,,2013-01-30 14:52:00,
2013-01-30 07:02:00,49.0,25.0,-100.00,ENE,68,12.0,23.0,39,-99.99,,,-99.99,,2013-01-30 15:02:00,
2013-01-30 07:11:00,49.0,25.0,-100.00,ENE,68,13.0,27.0,39,-99.99,,,-99.99,,2013-01-30 15:11:00,
2013-01-30 07:22:00,49.0,25.0,-100.00,ENE,71,13.0,25.0,39,-99.99,,,-99.99,,2013-01-30 15:22:00,
2013-01-30 07:32:00,49.0,25.0,-100.00,ENE,74,13.0,27.0,39,-99.99,,,-99.99,,2013-01-30 15:32:00,
2013-01-30 07:42:00,49.0,25.0,-100.00,ENE,71,13.0,24.0,38,-99.99,,,-99.99,,2013-01-30 15:42:00,
2013-01-30 07:52:00,49.0,25.0,-100.00,ENE,71,12.0,22.0,38,-99.99,,,-99.99,,2013-01-30 15:52:00,
2013-01-30 08:02:00,49.0,25.0,-100.00,ENE,77,10.0,19.0,38,-99.99,,,-99.99,,2013-01-30 16:02:00,
2013-01-30 08:12:00,49.0,24.0,-100.00,ENE,69,9.0,18.0,37,-99.99,,,-99.99,,2013-01-30 16:12:00,
2013-01-30 08:22:00,50.0,23.0,-100.00,East,79,8.0,18.0,35,-99.99,,,-99.99,,2013-01-30 16:22:00,
2013-01-30 08:32:00,50.0,22.0,-100.00,East,80,9.0,19.0,33,-99.99,,,-99.99,,2013-01-30 16:32:00,
2013-01-30 08:42:00,51.0,21.0,-100.00,East,81,10.0,20.0,31,-99.99,,,-99.99,,2013-01-30 16:42:00,
2013-01-30 08:51:00,51.0,21.0,-100.00,ENE,73,10.0,18.0,31,-99.99,,,-99.99,,2013-01-30 16:51:00,
2013-01-30 09:01:00,51.0,21.0,-100.00,ENE,73,10.0,18.0,31,-99.99,,,-99.99,,2013-01-30 17:01:00,
2013-01-30 09:12:00,51.0,21.0,-100.00,ENE,78,12.0,21.0,30,-99.99,,,-99.99,,2013-01-30 17:12:00,
2013-01-30 09:22:00,52.0,22.0,-100.00,East,81,11.0,21.0,30,-99.99,,,-99.99,,2013-01-30 17:22:00,
2013-01-30 09:31:00,52.0,22.0,-100.00,East,86,12.0,24.0,30,-99.99,,,-99.99,,2013-01-30 17:31:00,
2013-01-30 09:42:00,53.0,22.0,-100.00,East,86,10.0,21.0,30,-99.99,,,-99.99,,2013-01-30 17:42:00,
2013-01-30 09:52:00,53.0,22.0,-100.00,East,88,12.0,23.0,29,-99.99,,,-99.99,,2013-01-30 17:52:00,
2013-01-30 10:02:00,53.0,22.0,-100.00,East,82,11.0,22.0,29,-99.99,,,-99.99,,2013-01-30 18:02:00,
2013-01-30 10:12:00,54.0,22.0,-100.00,East,81,11.0,20.0,29,-99.99,,,-99.99,,2013-01-30 18:12:00,
2013-01-30 10:22:00,54.0,22.0,-100.00,ENE,74,10.0,18.0,29,-99.99,,,-99.99,,2013-01-30 18:22:00,
2013-01-30 10:32:00,54.0,22.0,-100.00,East,83,11.0,22.0,29,-99.99,,,-99.99,,2013-01-30 18:32:00,
2013-01-30 10:42:00,54.0,22.0,-100.00,East,88,12.0,21.0,29,-99.99,,,-99.99,,2013-01-30 18:42:00,
2013-01-30 10:51:00,54.0,22.0,-100.00,East,94,13.0,21.0,29,-99.99,,,-99.99,,2013-01-30 18:51:00,
2013-01-30 11:02:00,55.0,23.0,-100.00,East,93,12.0,22.0,29,-99.99,,,-99.99,,2013-01-30 19:02:00,
2013-01-30 11:11:00,55.0,23.0,-100.00,East,85,12.0,21.0,28,-99.99,,,-99.99,,2013-01-30 19:11:00,
2013-01-30 11:21:00,55.0,23.0,-100.00,East,84,12.0,21.0,28,-99.99,,,-99.99,,2013-01-30 19:21:00,
2013-01-30 11:32:00,55.0,23.0,-100.00,East,90,13.0,26.0,28,-99.99,,,-99.99,,2013-01-30 19:32:00,
2013-01-30 11:42:00,56.0,23.0,-100.00,East,83,11.0,23.0,28,-99.99,,,-99.99,,2013-01-30 19:42:00,
2013-01-30 11:52:00,56.0,23.0,-100.00,East,80,12.0,23.0,28,-99.99,,,-99.99,,2013-01-30 19:52:00,
2013-01-30 12:02:00,56.0,23.0,-100.00,East,83,12.0,22.0,27,-99.99,,,-99.99,,2013-01-30 20:02:00,
2013-01-30 12:11:00,56.0,23.0,-100.00,East,89,12.0,22.0,27,-99.99,,,-99.99,,2013-01-30 20:11:00,
2013-01-30 12:21:00,57.0,23.0,-100.00,East,83,11.0,26.0,27,-99.99,,,-99.99,,2013-01-30 20:21:00,
2013-01-30 12:32:00,57.0,23.0,-100.00,East,83,11.0,21.0,27,-99.99,,,-99.99,,2013-01-30 20:32:00,
2013-01-30 12:42:00,58.0,24.0,-100.00,East,80,10.0,20.0,27,-99.99,,,-99.99,,2013-01-30 20:42:00,
2013-01-30 12:52:00,58.0,24.0,-100.00,East,82,10.0,20.0,27,-99.99,,,-99.99,,2013-01-30 20:52:00,
2013-01-30 13:02:00,59.0,24.0,-100.00,East,79,9.0,16.0,26,-99.99,,,-99.99,,2013-01-30 21:02:00,
2013-01-30 13:11:00,59.0,24.0,-100.00,East,80,9.0,21.0,26,-99.99,,,-99.99,,2013-01-30 21:11:00,
2013-01-30 13:22:00,60.0,24.0,-100.00,ENE,75,10.0,17.0,25,-99.99,,,-99.99,,2013-01-30 21:22:00,
2013-01-30 13:31:00,60.0,24.0,-100.00,ENE,78,8.0,15.0,25,-99.99,,,-99.99,,2013-01-30 21:31:00,
2013-01-30 13:42:00,61.0,25.0,-100.00,East,80,8.0,15.0,25,-99.99,,,-99.99,,2013-01-30 21:42:00,
2013-01-30 13:52:00,61.0,25.0,-100.00,ENE,78,7.0,13.0,25,-99.99,,,-99.99,,2013-01-30 21:52:00,
2013-01-30 14:02:00,61.0,25.0,-100.00,East,80,8.0,13.0,25,-99.99,,,-99.99,,2013-01-30 22:02:00,
2013-01-30 14:11:00,61.0,25.0,-100.00,ENE,74,7.0,12.0,25,-99.99,,,-99.99,,2013-01-30 22:11:00,
2013-01-30 14:22:00,61.0,25.0,-100.00,ENE,77,7.0,14.0,25,-99.99,,,-99.99,,2013-01-30 22:22:00,
2013-01-30 14:32:00,61.0,25.0,-100.00,ENE,75,6.0,14.0,25,-99.99,,,-99.99,,2013-01-30 22:32:00,
2013-01-30 14:41:00,61.0,25.0,-100.00,ENE,77,7.0,14.0,25,-99.99,,,-99.99,,2013-01-30 22:41:00,
2013-01-30 14:52:00,61.0,26.0,-100.00,East,79,7.0,13.0,26,-99.99,,,-99.99,,2013-01-30 22:52:00,
2013-01-30 15:01:00,61.0,25.0,-100.00,East,80,5.0,9.0,25,-99.99,,,-99.99,,2013-01-30 23:01:00,
2013-01-30 15:11:00,62.0,25.0,-100.00,South,169,2.0,7.0,24,-99.99,,,-99.99,,2013-01-30 23:11:00,
2013-01-30 15:22:00,62.0,27.0,-100.00,SSE,165,7.0,12.0,26,-99.99,,,-99.99,,2013-01-30 23:22:00,
2013-01-30 15:32:00,62.0,27.0,-100.00,SE,142,6.0,10.0,26,-99.99,,,-99.99,,2013-01-30 23:32:00,
2013-01-30 15:42:00,61.0,26.0,-100.00,SSW,197,6.0,10.0,26,-99.99,,,-99.99,,2013-01-30 23:42:00,
2013-01-30 15:52:00,62.0,27.0,-100.00,SSW,199,4.0,9.0,26,-99.99,,,-99.99,,2013-01-30 23:52:00,
2013-01-30 16:01:00,62.0,27.0,-100.00,South,181,3.0,7.0,26,-99.99,,,-99.99,,2013-01-31 00:01:00,
2013-01-30 16:11:00,62.0,27.0,-100.00,SSW,203,3.0,6.0,26,-99.99,,,-99.99,,2013-01-31 00:11:00,
2013-01-30 16:21:00,61.0,26.0,-100.00,SW,218,5.0,9.0,26,-99.99,,,-99.99,,2013-01-31 00:21:00,
2013-01-30 16:31:00,61.0,27.0,-100.00,SSW,203,4.0,8.0,27,-99.99,,,-99.99,,2013-01-31 00:31:00,
2013-01-30 16:42:00,61.0,27.0,-100.00,SSW,192,3.0,6.0,27,-99.99,,,-99.99,,2013-01-31 00:42:00,
2013-01-30 16:52:00,61.0,27.0,-100.00,SSW,208,3.0,6.0,27,-99.99,,,-99.99,,2013-01-31 00:52:00,
2013-01-30 17:01:00,60.0,27.0,-100.00,SSW,202,3.0,5.0,28,-99.99,,,-99.99,,2013-01-31 01:01:00,
2013-01-30 17:11:00,60.0,28.0,-100.00,WSW,239,4.0,8.0,30,-99.99,,,-99.99,,2013-01-31 01:11:00,
2013-01-30 17:21:00,58.0,28.0,-100.00,WSW,237,4.0,7.0,31,-99.99,,,-99.99,,2013-01-31 01:21:00,
2013-01-30 17:31:00,57.0,27.0,-100.00,WSW,241,5.0,8.0,32,-99.99,,,-99.99,,2013-01-31 01:31:00,
2013-01-30 17:41:00,57.0,27.0,-100.00,WSW,241,5.0,8.0,32,-99.99,,,-99.99,,2013-01-31 01:41:00,
2013-01-30 17:52:00,55.0,27.0,-100.00,SSW,194,2.0,5.0,34,-99.99,,,-99.99,,2013-01-31 01:52:00,
2013-01-30 18:01:00,53.0,26.0,-100.00,SSE,153,3.0,5.0,35,-99.99,,,-99.99,,2013-01-31 02:01:00,
2013-01-30 18:11:00,51.0,28.0,-100.00,ESE,122,3.0,4.0,40,-99.99,,,-99.99,,2013-01-31 02:11:00,
2013-01-30 18:21:00,49.0,27.0,-100.00,SE,124,2.0,3.0,43,-99.99,,,-99.99,,2013-01-31 02:21:00,
2013-01-30 18:32:00,48.0,29.0,-100.00,SE,131,2.0,3.0,48,-99.99,,,-99.99,,2013-01-31 02:32:00,
2013-01-30 18:41:00,48.0,29.0,-100.00,SE,131,2.0,3.0,48,-99.99,,,-99.99,,2013-01-31 02:41:00,
2013-01-30 18:52:00,48.0,29.0,-100.00,SE,131,2.0,3.0,48,-99.99,,,-99.99,,2013-01-31 02:52:00,
2013-01-30 19:02:00,47.0,32.0,-100.00,SE,135,1.0,2.0,55,-99.99,,,-99.99,,2013-01-31 03:02:00,
2013-01-30 19:11:00,46.0,34.0,-100.00,ESE,121,2.0,3.0,62,-99.99,,,-99.99,,2013-01-31 03:11:00,
2013-01-30 19:21:00,46.0,36.0,-100.00,SE,128,1.0,3.0,67,-99.99,,,-99.99,,2013-01-31 03:21:00,
2013-01-30 19:31:00,44.0,35.0,-100.00,ESE,118,2.0,3.0,71,-99.99,,,-99.99,,2013-01-31 03:31:00,
2013-01-30 19:41:00,45.0,37.0,-100.00,SE,136,3.0,4.0,74,-99.99,,,-99.99,,2013-01-31 03:41:00,
2013-01-30 19:51:00,44.0,37.0,-100.00,SE,132,2.0,4.0,75,-99.99,,,-99.99,,2013-01-31 03:51:00,
2013-01-30 20:02:00,43.0,37.0,-100.00,SE,128,3.0,5.0,79,-99.99,,,-99.99,,2013-01-31 04:02:00,
2013-01-30 20:11:00,44.0,38.0,-100.00,SE,130,2.0,3.0,79,-99.99,,,-99.99,,2013-01-31 04:11:00,
2013-01-30 20:22:00,42.0,37.0,-100.00,SE,128,3.0,6.0,82,-99.99,,,-99.99,,2013-01-31 04:22:00,
2013-01-30 20:31:00,42.0,38.0,-100.00,SE,131,3.0,4.0,85,-99.99,,,-99.99,,2013-01-31 04:31:00,
2013-01-30 20:41:00,43.0,39.0,-100.00,East,86,1.0,3.0,86,-99.99,,,-99.99,,2013-01-31 04:41:00,
2013-01-30 20:51:00,42.0,37.0,-100.00,NNW,347,1.0,3.0,81,-99.99,,,-99.99,,2013-01-31 04:51:00,
2013-01-30 21:03:00,41.0,36.0,-100.00,NNW,348,1.0,2.0,83,-99.99,,,-99.99,,2013-01-31 05:03:00,
2013-01-30 21:10:00,38.0,36.0,-100.00,ESE,123,2.0,3.0,91,-99.99,,,-99.99,,2013-01-31 05:10:00,
2013-01-30 21:11:00,40.0,36.0,-100.00,ENE,66,2.0,4.0,85,-99.99,,,-99.99,,2013-01-31 05:11:00,
2013-01-30 21:21:00,40.0,36.0,-100.00,SE,140,1.0,2.0,86,-99.99,,,-99.99,,2013-01-31 05:21:00,
2013-01-30 21:31:00,40.0,36.0,-100.00,SE,140,1.0,2.0,86,-99.99,,,-99.99,,2013-01-31 05:31:00,
2013-01-30 21:41:00,38.0,36.0,-100.00,ESE,123,2.0,3.0,91,-99.99,,,-99.99,,2013-01-31 05:41:00,
2013-01-30 21:51:00,38.0,36.0,-100.00,ESE,123,2.0,3.0,91,-99.99,,,-99.99,,2013-01-31 05:51:00,
2013-01-30 22:01:00,38.0,36.0,-100.00,ESE,123,2.0,3.0,91,-99.99,,,-99.99,,2013-01-31 06:01:00,